Fort Campbell, KY

7:49 AM CST on February 10, 2016 (GMT -0600)
Campbell Army Air Field

Weather History for KHOP - August, 2014

Change the Weather History Date:

Sunday, August 24, 2014

  Actual Average Record
Temperature  
Mean Temperature 79 °F -  
Max Temperature 90 °F 85 °F 101 °F (2007)
Min Temperature 69 °F 66 °F 57 °F (1997)
Cooling Degree Days 14    
Growing Degree Days 29 (Base 50)    
Moisture  
Dew Point 73 °F    
Average Humidity 88    
Maximum Humidity 100    
Minimum Humidity 55    
Precipitation  
Precipitation 0.00 in - - ()
Sea Level Pressure  
Sea Level Pressure 29.97 in    
Wind  
Wind Speed 5 mph (ENE)    
Max Wind Speed 10 mph    
Max Gust Speed -    
Visibility 10 miles    
Events      
Averages and records for this station are not official NWS values.
T = Trace of Precipitation, MM = Missing Value Source: NWS Daily Summary

Daily Weather History Graph

Daily Weather History Graph

Search for Another Location

Airport or City:

Trip Planner

Search our weather history database for the weather conditions in past years. The results will help you decide how hot, cold, wet, or windy it might be!

Date:

Astronomy

Aug. 24, 2014 Rise Set
Actual Time 6:14 AM CDT 7:29 PM CDT
Civil Twilight 5:47 AM CDT 7:56 PM CDT
Nautical Twilight 5:15 AM CDT 8:28 PM CDT
Astronomical Twilight 4:42 AM CDT 9:01 PM CDT
Moon 5:24 AM CDT (8/24) 6:48 PM CDT (8/24)
Length of Visible Light 14h 08m
Length of Day
13h 14m
Waning Crescent, 1% of the Moon is Illuminated
Aug 24
Waning Crescent
Aug 25
New
Sep 2
First Quarter
Sep 8
Full
Sep 15
Last Quarter

Hourly Weather History & Observations

Time (CDT) Temp. Heat Index Dew Point Humidity Pressure Visibility Wind Dir Wind Speed Gust Speed Precip Events Conditions
12:58 AM 72.5 °F - 72.5 °F 100% 29.97 in 10.0 mi South 10.4 mph - N/A   Clear
1:58 AM 72.5 °F - 72.5 °F 100% 29.96 in 10.0 mi SSW 3.5 mph - N/A   Clear
2:58 AM 72.0 °F - 72.0 °F 100% 29.95 in 10.0 mi SW 5.8 mph - N/A   Clear
3:58 AM 71.6 °F - 71.6 °F 100% 29.94 in 10.0 mi West 3.5 mph - N/A   Clear
4:58 AM 71.2 °F - 71.2 °F 100% 29.94 in 10.0 mi North 2.3 mph - N/A   Clear
5:31 AM 69.8 °F - 69.8 °F 100% 29.96 in 9.0 mi East 2.3 mph - N/A   Clear
5:37 AM 69.8 °F - 69.8 °F 100% 29.96 in 9.0 mi Calm Calm - N/A   Clear
5:58 AM 70.2 °F - 70.2 °F 100% 29.95 in 10.0 mi East 2.3 mph - N/A   Clear
6:58 AM 70.0 °F - 70.0 °F 100% 29.97 in 7.0 mi ENE 1.2 mph - N/A   Clear
7:58 AM 70.9 °F - 70.9 °F 100% 29.99 in 10.0 mi East 4.6 mph - N/A   Clear
8:58 AM 73.2 °F - 73.2 °F 100% 29.99 in 10.0 mi East 4.6 mph - 0.00 in   Clear
9:58 AM 77.2 °F - 76.1 °F 96% 30.00 in 10.0 mi NNE 2.3 mph - N/A   Partly Cloudy
10:23 AM 78.8 °F - 75.2 °F 89% 30.02 in 10.0 mi ENE 5.8 mph - N/A   Mostly Cloudy
10:27 AM 78.8 °F - 75.2 °F 89% 30.02 in 10.0 mi Variable 4.6 mph - N/A   Scattered Clouds
10:58 AM 80.1 °F 85.2 °F 75.4 °F 86% 30.00 in 10.0 mi East 8.1 mph - N/A   Clear
11:58 AM 83.3 °F 90.8 °F 75.0 °F 76% 30.00 in 10.0 mi Variable 1.2 mph - N/A   Clear
12:58 PM 86.5 °F 96.9 °F 76.3 °F 71% 29.99 in 10.0 mi Variable 4.6 mph - N/A   Partly Cloudy
1:58 PM 87.6 °F 97.1 °F 75.2 °F 66% 29.98 in 10.0 mi Variable 5.8 mph - N/A   Clear
2:58 PM 89.1 °F 98.0 °F 73.9 °F 61% 29.96 in 6.0 mi ENE 9.2 mph - N/A   Haze
3:58 PM 89.8 °F 96.5 °F 71.8 °F 55% 29.94 in 8.0 mi NE 6.9 mph - N/A   Clear
4:58 PM 89.6 °F 97.2 °F 72.5 °F 57% 29.94 in 10.0 mi NNE 8.1 mph - N/A   Clear
5:58 PM 85.8 °F 93.4 °F 73.8 °F 67% 29.94 in 10.0 mi NE 6.9 mph - N/A   Clear
6:58 PM 82.4 °F 88.2 °F 73.4 °F 74% 29.94 in 10.0 mi NNE 5.8 mph - N/A   Clear
7:58 PM 79.2 °F - 75.4 °F 88% 29.96 in 10.0 mi NNE 4.6 mph - N/A   Clear
8:58 PM 78.6 °F - 75.0 °F 89% 29.97 in 10.0 mi ENE 5.8 mph - N/A   Clear
9:16 PM 78.8 °F - 73.4 °F 83% 29.98 in 9.0 mi ENE 4.6 mph - N/A   Clear
9:35 PM 78.8 °F - 73.4 °F 83% 29.99 in 9.0 mi ENE 4.6 mph - N/A   Clear
9:58 PM 77.2 °F - 74.8 °F 92% 29.99 in 10.0 mi NE 3.5 mph - N/A   Clear
10:30 PM 77.0 °F - 75.2 °F 94% 29.99 in 9.0 mi ENE 4.6 mph - N/A   Clear
10:43 PM 75.2 °F - 75.2 °F 100% 29.99 in 9.0 mi NE 4.6 mph - N/A   Clear
10:58 PM 75.2 °F - 75.2 °F 100% 29.99 in 10.0 mi ENE 4.6 mph - N/A   Clear
11:27 PM 75.2 °F - 75.2 °F 100% 30.00 in 9.0 mi ENE 4.6 mph - N/A   Clear
11:58 PM 74.7 °F - 74.7 °F 100% 30.00 in 8.0 mi East 4.6 mph - N/A   Clear